Wind_Speed
37 38 38 39 40 40 38 37 34 32 31 30 28 27 26 25 23 21 20 18 17 17 16 16 15 14 14 14 13 13 12 12 12 12 11 11 11 11 11 11 12 12 12 12 12 12 13 13 13
38 39 40 41 42 41 39 37 35 34 33 32 31 29 28 27 25 23 21 20 19 19 18 17 17 16 15 15 15 14 14 14 13 13 13 13 13 13 13 13 13 13 13 14 14 14 15 15 15
38 39 40 41 41 40 39 37 36 35 35 34 33 31 30 29 27 25 23 22 21 20 20 19 18 18 17 17 17 16 16 16 15 15 15 15 15 15 15 15 15 15 16 16 16 16 17 17 17
36 37 39 40 39 38 38 38 37 36 36 36 35 33 32 30 28 27 25 24 23 22 21 21 20 20 19 19 19 19 19 18 18 18 17 17 17 17 17 18 18 18 18 18 18 18 18 19 19
34 35 37 38 38 38 38 38 38 37 37 37 36 35 33 31 30 28 27 26 25 24 23 23 22 21 21 21 21 21 21 21 21 20 19 19 20 20 20 20 20 20 20 21 21 20 20 20 20
32 34 35 36 36 37 38 38 39 39 39 38 37 35 34 32 31 30 29 28 27 26 25 24 24 23 23 23 22 23 23 23 23 22 21 21 21 21 22 22 22 22 22 22 22 22 21 21 21
30 32 33 34 35 36 37 38 39 39 39 39 38 37 35 34 32 31 30 29 28 28 27 26 26 25 25 24 24 24 24 24 24 23 22 23 22 23 23 23 23 23 23 23 22 22 22 23 23
28 30 31 32 33 34 35 36 37 38 38 39 38 37 35 34 33 32 31 31 30 29 28 28 28 26 26 26 25 25 26 25 25 25 24 24 23 23 24 24 24 24 24 23 23 23 24 24 24
27 29 29 30 32 33 34 34 35 37 38 38 38 37 35 34 34 33 32 32 31 30 29 29 28 27 27 27 27 27 26 26 26 26 25 25 24 24 24 24 24 24 24 24 24 24 25 25 26
24 26 26 28 29 31 32 32 33 35 37 37 36 36 36 34 33 32 32 31 31 30 29 29 28 28 27 27 27 27 26 26 27 27 27 26 25 25 25 25 25 25 25 25 26 26 27 27 28
21 22 23 26 28 28 29 30 30 32 35 35 35 35 35 34 34 33 33 32 31 31 30 29 29 28 28 28 27 27 27 27 27 26 26 26 26 26 26 26 25 26 26 27 27 28 28 29 29
20 20 22 24 26 26 28 29 30 31 32 33 33 34 35 35 34 34 33 33 32 31 31 31 31 30 30 29 28 28 27 27 26 27 26 26 26 26 26 27 27 27 28 28 29 30 30 30 31
17 18 20 22 24 25 26 28 28 28 30 33 33 33 34 34 34 34 34 33 33 32 32 31 31 30 30 30 29 28 27 26 27 26 26 25 26 26 27 28 29 29 30 30 30 30 31 31 32
14 15 18 20 23 24 25 27 28 27 28 31 33 32 33 34 34 34 34 34 33 33 33 32 32 32 32 31 31 29 28 27 28 27 26 27 27 27 28 29 30 30 31 31 31 31 32 33 33
13 14 16 19 21 23 24 25 27 27 29 30 31 32 33 33 34 34 34 34 33 33 33 33 33 33 33 32 32 31 30 29 29 28 28 28 28 29 30 31 31 31 31 32 32 33 33 34 34
12 14 17 18 20 22 24 24 25 27 30 30 31 32 32 32 32 33 33 33 33 33 33 33 33 33 33 33 32 32 31 30 30 30 29 29 29 30 31 32 32 32 32 33 33 33 34 35 35
12 14 15 17 19 20 23 24 25 27 29 30 30 32 32 32 32 32 32 32 33 33 33 33 33 33 33 33 32 32 32 32 32 32 32 32 31 32 32 32 33 33 33 34 34 35 36 36 37
13 13 14 15 17 20 22 23 25 26 27 28 28 30 30 30 31 31 32 33 33 33 33 33 34 34 34 33 32 32 33 32 32 33 33 33 32 33 33 34 34 33 34 35 35 36 37 37 38
13 13 14 15 16 19 20 22 24 26 27 28 28 29 29 30 30 30 29 30 31 32 32 33 33 33 33 33 33 33 33 34 34 34 34 34 33 34 34 34 34 35 35 36 36 37 37 38 38
12 12 13 14 15 17 19 21 22 24 25 26 27 28 29 29 29 29 29 29 30 30 31 31 32 32 32 32 32 33 34 34 34 35 35 35 35 35 35 34 34 35 36 36 37 37 38 38 39
11 12 12 14 15 17 19 20 21 22 23 24 26 27 28 28 28 28 28 29 29 30 30 31 31 32 32 32 32 33 34 35 36 35 35 35 35 36 36 36 36 36 36 37 38 38 39 39 40
11 12 12 12 14 16 18 20 21 21 22 23 24 26 27 28 28 29 29 29 29 29 30 31 31 32 33 34 34 34 35 36 37 37 36 36 36 36 38 37 37 37 38 39 39 39 40 40 40
12 12 11 11 12 14 17 19 20 22 23 23 24 25 26 27 27 27 28 29 29 30 30 31 31 33 34 35 35 35 36 37 37 37 37 37 37 37 38 39 40 39 39 39 40 41 41 41 41
13 13 13 12 12 13 15 18 19 20 22 22 23 23 25 25 26 27 27 28 29 30 31 31 32 33 34 34 36 36 36 37 37 36 37 38 38 39 40 40 40 40 41 41 42 42 42 42 42
13 13 14 15 15 14 15 17 18 18 19 21 21 22 23 25 26 27 28 28 29 30 31 32 33 33 34 34 35 36 36 38 38 38 38 39 40 40 41 42 42 43 43 43 42 42 42 41 41
13 13 14 16 16 15 15 16 16 17 18 20 21 22 24 25 26 27 28 29 30 31 31 32 33 34 34 35 36 37 37 38 39 40 40 40 42 42 42 43 43 43 44 43 42 42 41 41 41
13 14 15 16 17 17 16 16 17 17 18 19 21 23 24 26 27 28 28 29 30 31 32 32 33 34 35 36 37 37 38 38 39 40 41 41 43 44 45 45 44 43 43 43 43 42 42 42 41
15 15 15 16 18 18 17 16 16 17 19 21 22 23 25 26 27 29 30 30 31 32 32 32 33 34 35 35 36 38 39 40 40 40 41 42 43 44 44 44 44 43 42 42 42 42 42 41 41
16 16 16 17 18 18 18 17 17 18 19 21 22 24 26 27 27 28 30 30 31 32 32 32 33 33 34 34 36 38 39 41 42 42 43 44 44 43 43 42 42 42 43 42 42 42 42 41 41
18 18 18 19 19 19 20 19 18 19 20 22 23 25 26 27 28 29 29 30 31 32 33 34 34 34 35 36 37 38 39 41 42 43 44 44 44 43 42 42 43 43 43 43 43 43 43 43 42
Wind_Direction
248 246 244 243 243 244 244 244 242 240 237 236 236 237 238 239 240 240 240 239 240 242 243 243 245 245 245 247 248 250 253 255 257 261 264 267 270 271 273 277 278 279 279 280 281 281 282 282 282
247 244 243 243 243 244 244 243 242 240 238 237 236 236 237 239 240 240 240 240 240 241 243 244 246 247 248 249 250 252 254 256 258 262 264 267 269 271 273 275 277 278 278 278 279 279 281 281 280
246 244 243 242 242 242 243 242 241 240 238 236 236 237 237 238 239 239 240 239 239 241 243 245 248 249 250 251 253 254 256 258 260 262 264 266 269 270 272 275 277 278 278 278 278 278 278 278 279
245 243 242 242 242 241 240 239 239 239 237 236 235 236 237 238 239 239 240 240 240 241 244 247 250 252 253 255 256 256 257 258 261 262 263 265 268 269 271 273 275 277 278 278 278 277 277 277 277
244 243 242 241 241 240 239 237 237 238 237 236 236 235 236 238 239 240 239 240 240 242 244 247 251 254 255 257 258 259 259 260 261 261 263 265 267 268 270 272 274 276 277 278 277 277 276 275 275
243 243 244 242 241 240 239 238 237 237 237 237 236 235 235 236 238 239 239 240 241 243 246 248 250 253 255 257 259 260 260 262 262 262 262 264 267 268 269 271 273 275 276 276 276 276 275 275 274
244 245 246 244 242 240 240 239 237 237 236 236 236 235 235 235 237 239 240 240 242 244 246 248 249 251 254 258 259 261 262 263 264 262 262 264 266 268 270 271 272 273 274 275 274 274 275 274 274
246 247 247 245 242 240 239 238 237 236 237 236 236 235 234 234 236 238 239 240 242 244 246 248 248 250 253 257 259 261 262 263 263 263 263 264 266 268 270 271 271 271 272 273 274 275 275 275 275
249 248 248 244 241 239 238 237 236 236 236 237 237 236 235 234 235 237 239 241 242 243 245 248 249 250 253 256 258 260 262 263 263 263 263 264 266 268 270 270 270 271 271 272 273 275 275 275 276
252 251 247 241 239 238 236 236 236 236 235 235 235 235 234 233 234 235 238 240 241 242 245 248 251 252 254 255 257 260 262 263 264 263 264 264 265 267 268 269 269 270 271 272 274 275 275 276 276
252 251 248 243 240 238 234 234 235 235 234 233 233 233 233 232 233 235 237 239 241 243 245 248 251 253 254 256 258 260 261 262 263 263 262 264 265 267 268 268 268 270 271 273 275 276 276 276 276
253 250 248 243 240 238 234 233 234 234 233 230 230 232 232 232 233 236 238 239 241 243 246 248 250 252 254 255 257 258 259 261 262 262 263 263 264 265 267 267 268 270 272 274 275 276 277 277 277
253 249 246 241 238 237 234 233 234 235 231 228 229 230 231 232 233 235 238 240 242 244 246 248 250 252 254 255 257 258 259 260 260 261 262 263 264 265 266 268 269 271 273 275 277 277 278 278 278
251 248 243 243 241 239 235 233 233 232 230 228 230 231 232 233 234 236 238 240 242 245 247 249 251 253 255 254 255 256 258 261 260 260 261 264 264 266 267 269 270 272 273 275 276 277 278 279 279
252 248 247 244 243 241 238 234 233 232 231 229 230 232 233 234 235 237 239 241 243 244 246 248 250 253 253 254 255 254 256 259 259 259 262 266 267 268 269 270 272 273 275 276 277 278 278 279 279
257 252 249 247 245 242 238 235 232 231 231 230 231 233 234 235 237 238 240 241 242 243 245 248 250 250 252 253 255 255 255 257 257 259 263 266 269 269 269 270 272 274 275 277 278 278 278 279 280
265 259 254 247 246 243 240 238 236 234 233 232 232 233 235 238 240 241 243 243 244 244 246 248 250 251 252 253 254 256 255 256 257 259 262 264 267 269 269 271 273 274 275 276 277 278 278 280 280
273 267 260 253 248 246 243 239 238 238 236 235 235 235 237 239 243 244 245 245 246 247 249 250 251 252 253 255 256 256 256 257 258 260 263 266 268 270 270 271 273 274 275 276 277 278 279 280 280
274 268 263 256 251 247 241 239 239 240 238 238 239 238 238 240 244 246 247 248 249 250 251 252 253 253 254 255 256 258 259 260 261 262 265 266 269 271 272 271 273 274 276 277 277 278 280 281 280
277 272 263 254 251 247 239 238 239 242 242 241 241 241 241 243 245 247 248 250 250 252 252 252 252 253 254 256 257 259 260 261 262 263 265 266 269 270 272 271 273 275 277 277 278 279 281 281 280
281 278 266 259 256 251 244 239 238 240 242 243 242 242 243 244 246 247 249 251 252 253 253 253 253 254 255 256 258 260 262 263 264 266 267 269 269 270 271 273 274 275 276 278 279 280 281 281 281
289 282 273 268 263 256 250 243 240 242 243 244 245 245 245 246 248 249 251 251 252 253 253 254 255 255 256 258 259 261 263 264 265 266 267 269 269 271 273 274 275 276 276 277 279 280 281 281 281
293 286 279 275 270 264 258 252 245 245 247 248 249 249 247 245 247 249 251 253 254 254 254 254 256 257 258 259 261 263 264 264 266 267 268 268 269 272 274 274 275 276 277 278 280 281 281 281 282
295 289 278 273 273 268 262 257 253 251 251 251 251 251 248 246 248 249 252 254 255 256 256 256 257 259 260 261 262 264 264 264 266 268 269 269 270 272 274 275 275 275 277 278 280 281 281 281 281
294 288 282 278 276 273 266 259 256 252 251 250 250 251 251 250 251 252 254 255 256 258 259 260 260 261 262 263 263 265 265 266 266 268 270 272 272 273 273 276 277 276 276 277 279 280 280 280 281
295 287 285 284 280 276 270 262 256 252 251 252 251 253 254 254 255 255 256 257 258 259 261 262 263 263 263 264 266 267 267 268 268 269 270 272 272 272 274 276 277 277 276 276 277 278 278 279 280
295 290 285 284 281 279 274 269 263 257 253 254 254 256 256 256 257 258 259 260 261 262 264 265 265 265 266 268 269 270 270 271 270 271 272 273 274 275 275 276 277 277 278 277 277 277 277 278 280
292 289 285 285 283 281 275 272 271 266 262 261 261 261 261 261 261 261 261 262 263 265 266 267 268 268 269 270 271 272 273 273 273 273 274 276 278 278 278 278 277 277 278 278 277 278 278 278 280
289 288 287 285 283 282 279 277 276 270 265 264 263 263 263 263 263 262 263 264 265 267 268 269 271 271 271 271 273 273 274 274 274 275 276 278 279 279 279 279 278 278 279 279 278 279 278 279 280
285 284 284 284 283 282 281 282 278 273 269 268 268 268 267 265 264 265 266 266 267 268 269 270 271 272 271 272 273 274 275 276 276 277 278 279 279 280 280 280 279 278 278 277 278 279 279 280 280
Height
5791 5794 5797 5799 5801 5803 5807 5812 5817 5822 5825 5829 5832 5834 5837 5840 5843 5847 5848 5849 5850 5852 5853 5854 5856 5857 5858 5859 5860 5861 5862 5863 5864 5864 5865 5866 5866 5867 5867 5868 5868 5868 5869 5869 5869 5869 5869 5870 5870
5782 5785 5788 5790 5792 5795 5801 5806 5810 5815 5819 5823 5826 5829 5832 5834 5837 5841 5843 5845 5846 5848 5850 5851 5853 5854 5855 5856 5857 5858 5859 5860 5861 5862 5862 5863 5864 5864 5865 5865 5865 5866 5866 5866 5866 5867 5867 5867 5867
5773 5776 5779 5780 5783 5789 5794 5799 5804 5808 5811 5816 5820 5823 5826 5830 5832 5835 5838 5840 5842 5844 5846 5848 5849 5851 5852 5853 5854 5855 5856 5857 5858 5858 5859 5860 5860 5861 5862 5862 5862 5863 5863 5863 5863 5864 5864 5864 5864
5764 5767 5769 5772 5776 5782 5787 5792 5796 5800 5804 5808 5813 5817 5821 5825 5828 5831 5834 5836 5838 5840 5842 5844 5846 5847 5848 5850 5851 5852 5853 5853 5854 5855 5856 5856 5857 5858 5858 5859 5859 5859 5860 5860 5860 5860 5860 5860 5861
5755 5758 5761 5764 5769 5775 5779 5784 5788 5792 5796 5801 5806 5811 5815 5819 5822 5825 5828 5831 5833 5835 5837 5839 5841 5843 5844 5845 5847 5848 5849 5850 5850 5851 5852 5852 5853 5854 5854 5855 5855 5855 5856 5856 5856 5856 5856 5856 5857
5747 5750 5753 5757 5763 5767 5771 5776 5780 5785 5789 5794 5799 5804 5809 5812 5816 5820 5823 5826 5828 5830 5832 5834 5836 5838 5839 5841 5842 5843 5844 5845 5846 5846 5847 5848 5848 5849 5850 5850 5851 5851 5851 5851 5852 5852 5852 5852 5852
5741 5743 5746 5750 5755 5759 5764 5768 5772 5777 5782 5787 5791 5797 5802 5806 5810 5814 5817 5820 5823 5825 5827 5829 5831 5833 5834 5836 5837 5838 5839 5840 5841 5841 5842 5843 5843 5844 5845 5845 5846 5846 5846 5847 5847 5847 5847 5847 5848
5734 5738 5740 5743 5747 5752 5756 5760 5764 5769 5774 5779 5784 5790 5796 5801 5804 5808 5811 5814 5817 5819 5821 5823 5825 5827 5829 5830 5831 5833 5833 5834 5835 5836 5837 5838 5838 5839 5839 5840 5840 5841 5841 5842 5842 5842 5842 5843 5843
5729 5732 5734 5737 5741 5745 5749 5753 5757 5762 5767 5772 5778 5784 5790 5794 5798 5802 5805 5808 5811 5813 5816 5818 5820 5822 5823 5825 5826 5827 5828 5828 5829 5830 5832 5833 5833 5833 5834 5834 5835 5835 5836 5836 5837 5837 5837 5837 5837
5724 5727 5730 5732 5735 5739 5743 5747 5751 5755 5760 5765 5771 5777 5782 5787 5792 5795 5799 5802 5805 5807 5810 5812 5814 5816 5818 5819 5820 5821 5822 5823 5823 5825 5826 5827 5827 5828 5828 5829 5829 5830 5830 5831 5831 5831 5831 5831 5832
5720 5722 5725 5727 5730 5734 5738 5741 5745 5749 5754 5760 5766 5771 5776 5781 5785 5789 5792 5796 5799 5801 5804 5806 5808 5810 5811 5813 5814 5815 5816 5817 5818 5819 5820 5821 5821 5822 5822 5823 5824 5824 5824 5825 5825 5825 5825 5825 5825
5716 5718 5720 5722 5725 5729 5733 5736 5740 5744 5749 5754 5759 5764 5769 5774 5779 5782 5786 5789 5792 5795 5798 5800 5802 5803 5805 5807 5808 5809 5810 5811 5812 5813 5814 5815 5815 5816 5817 5817 5818 5818 5818 5819 5819 5819 5819 5819 5819
5713 5715 5716 5718 5721 5724 5728 5732 5735 5739 5743 5747 5752 5757 5763 5768 5772 5776 5780 5783 5786 5789 5791 5793 5795 5797 5799 5800 5802 5803 5804 5805 5806 5807 5808 5809 5810 5810 5810 5811 5812 5812 5812 5812 5812 5812 5812 5812 5812
5710 5711 5713 5715 5717 5720 5724 5728 5731 5735 5738 5742 5747 5752 5757 5761 5766 5770 5773 5777 5780 5782 5785 5787 5789 5790 5792 5794 5795 5797 5798 5799 5800 5801 5802 5803 5803 5804 5804 5804 5805 5805 5805 5805 5805 5805 5805 5804 5804
5708 5710 5711 5712 5714 5717 5721 5724 5727 5730 5734 5738 5742 5747 5751 5756 5759 5763 5767 5770 5773 5776 5778 5780 5782 5784 5785 5787 5788 5790 5791 5793 5794 5795 5796 5796 5797 5797 5797 5798 5798 5798 5798 5798 5797 5797 5797 5797 5796
5707 5708 5709 5710 5712 5714 5718 5721 5723 5726 5730 5734 5738 5742 5746 5750 5753 5757 5760 5763 5766 5769 5771 5773 5775 5777 5778 5780 5781 5783 5785 5786 5787 5788 5789 5789 5789 5790 5790 5790 5791 5791 5790 5790 5790 5789 5789 5788 5788
5706 5706 5707 5708 5709 5711 5714 5717 5719 5722 5725 5729 5733 5737 5741 5745 5748 5751 5754 5757 5759 5762 5764 5766 5768 5769 5771 5773 5774 5776 5777 5779 5780 5781 5782 5782 5783 5783 5783 5783 5783 5783 5783 5782 5782 5781 5781 5780 5779
5704 5704 5705 5706 5707 5708 5710 5713 5715 5718 5721 5724 5728 5731 5735 5739 5742 5744 5747 5750 5752 5755 5757 5759 5761 5762 5764 5766 5767 5769 5770 5771 5772 5774 5774 5775 5775 5775 5775 5775 5775 5775 5775 5774 5773 5773 5772 5771 5770
5702 5702 5703 5704 5704 5705 5707 5709 5712 5714 5717 5720 5723 5726 5730 5733 5735 5738 5741 5743 5746 5748 5750 5752 5754 5755 5757 5758 5760 5762 5763 5764 5765 5766 5766 5767 5767 5767 5767 5767 5767 5767 5766 5766 5765 5764 5763 5762 5760
5700 5700 5701 5702 5702 5703 5704 5706 5708 5710 5713 5716 5718 5721 5724 5728 5730 5733 5735 5738 5739 5742 5743 5745 5746 5748 5749 5751 5753 5754 5755 5756 5757 5758 5758 5759 5759 5759 5759 5759 5758 5758 5758 5757 5756 5755 5754 5752 5751
5699 5699 5699 5699 5700 5700 5702 5703 5705 5707 5709 5712 5714 5716 5719 5722 5725 5728 5730 5732 5733 5735 5737 5738 5740 5741 5742 5744 5745 5746 5747 5748 5749 5749 5750 5750 5750 5750 5750 5750 5750 5749 5749 5748 5747 5746 5745 5743 5742
5698 5698 5697 5697 5697 5698 5700 5700 5702 5704 5706 5708 5710 5713 5715 5717 5720 5722 5724 5726 5727 5729 5730 5731 5733 5734 5736 5737 5738 5739 5740 5740 5741 5741 5741 5741 5741 5741 5741 5741 5740 5740 5739 5738 5737 5736 5735 5734 5732
5697 5696 5695 5695 5695 5696 5696 5698 5700 5701 5703 5705 5707 5708 5710 5712 5714 5716 5718 5720 5721 5722 5723 5724 5725 5727 5728 5729 5731 5731 5732 5732 5732 5732 5733 5733 5732 5732 5732 5732 5731 5731 5730 5729 5728 5726 5725 5724 5722
5694 5694 5694 5693 5693 5694 5694 5695 5697 5697 5699 5701 5702 5704 5706 5708 5709 5711 5712 5714 5715 5716 5716 5717 5718 5719 5720 5721 5722 5722 5723 5723 5723 5723 5724 5723 5723 5723 5722 5722 5721 5720 5720 5719 5717 5716 5715 5713 5712
5692 5692 5692 5691 5690 5691 5691 5691 5693 5694 5695 5696 5698 5699 5701 5702 5704 5706 5707 5708 5708 5709 5710 5711 5711 5712 5712 5713 5713 5714 5714 5714 5714 5715 5715 5714 5714 5713 5712 5712 5711 5710 5709 5708 5707 5706 5705 5703 5701
5690 5690 5690 5689 5688 5688 5688 5688 5690 5690 5691 5692 5693 5695 5696 5698 5699 5699 5700 5701 5702 5703 5703 5703 5704 5704 5704 5705 5705 5705 5705 5705 5705 5705 5705 5704 5704 5703 5702 5701 5700 5699 5698 5697 5696 5695 5694 5692 5691
5688 5687 5687 5686 5685 5685 5685 5686 5686 5686 5687 5688 5689 5690 5691 5692 5693 5694 5694 5695 5695 5696 5696 5696 5696 5696 5696 5696 5697 5696 5696 5696 5696 5696 5695 5695 5694 5693 5692 5690 5689 5688 5687 5686 5685 5684 5683 5682 5680
5686 5685 5684 5683 5681 5681 5682 5682 5683 5682 5683 5683 5684 5684 5685 5686 5687 5687 5688 5688 5688 5688 5689 5689 5688 5688 5688 5688 5688 5687 5687 5687 5686 5686 5685 5685 5684 5683 5682 5680 5679 5678 5677 5676 5675 5674 5672 5671 5669
5683 5683 5681 5679 5678 5677 5677 5681 5679 5678 5678 5678 5678 5678 5679 5680 5680 5680 5681 5681 5681 5681 5681 5681 5680 5680 5680 5679 5679 5678 5678 5677 5677 5676 5675 5674 5673 5672 5671 5669 5668 5667 5666 5665 5664 5663 5661 5660 5658
5679 5678 5677 5676 5675 5674 5673 5677 5674 5673 5672 5672 5672 5672 5672 5673 5673 5673 5673 5674 5673 5673 5673 5673 5672 5672 5671 5671 5670 5669 5669 5668 5667 5666 5665 5664 5663 5661 5660 5659 5657 5656 5655 5654 5653 5652 5650 5648 5647